TimeCST,TemperatureF,Dew PointF,Humidity,Sea Level PressureIn,VisibilityMPH,Wind Direction,Wind SpeedMPH,Gust SpeedMPH,PrecipitationIn,Events,Conditions,WindDirDegrees,DateUTC
12:53 AM,36.0,30.0,79,30.28,10.0,SSW,6.9,-,N/A,,Clear,200,2013-01-19 06:53:00
1:53 AM,36.0,30.0,79,30.28,10.0,SSW,6.9,-,N/A,,Clear,200,2013-01-19 07:53:00
2:53 AM,36.0,28.9,76,30.27,10.0,SSW,5.8,-,N/A,,Clear,200,2013-01-19 08:53:00
3:53 AM,34.0,28.9,82,30.26,10.0,Calm,Calm,-,N/A,,Clear,0,2013-01-19 09:53:00
4:53 AM,36.0,28.9,76,30.25,10.0,South,4.6,-,N/A,,Clear,180,2013-01-19 10:53:00
6:53 AM,36.0,28.9,76,30.25,10.0,SSW,8.1,-,N/A,,Clear,200,2013-01-19 12:53:00
7:53 AM,36.0,30.0,79,30.24,10.0,South,5.8,-,N/A,,Clear,180,2013-01-19 13:53:00
8:53 AM,39.9,30.9,70,30.24,10.0,South,9.2,-,N/A,,Clear,190,2013-01-19 14:53:00
9:53 AM,45.0,33.1,63,30.24,10.0,SSW,13.8,20.7,N/A,,Clear,210,2013-01-19 15:53:00
10:53 AM,48.0,35.1,61,30.21,10.0,SSW,17.3,23.0,N/A,,Clear,200,2013-01-19 16:53:00
11:53 AM,50.0,34.0,54,30.17,10.0,SW,18.4,27.6,N/A,,Clear,220,2013-01-19 17:53:00
12:53 PM,52.0,37.0,57,30.13,10.0,SW,18.4,23.0,N/A,,Clear,220,2013-01-19 18:53:00
1:53 PM,54.0,39.0,57,30.11,10.0,SSW,16.1,-,N/A,,Clear,210,2013-01-19 19:53:00
2:53 PM,55.0,41.0,59,30.09,10.0,South,18.4,-,N/A,,Clear,190,2013-01-19 20:53:00
3:53 PM,55.9,42.1,60,30.08,10.0,SSW,15.0,-,N/A,,Clear,210,2013-01-19 21:53:00
4:53 PM,54.0,41.0,62,30.08,10.0,SSW,13.8,-,N/A,,Clear,200,2013-01-19 22:53:00
5:53 PM,51.1,39.9,66,30.08,10.0,SSW,10.4,-,N/A,,Clear,210,2013-01-19 23:53:00
6:53 PM,51.1,37.9,61,30.10,10.0,SSW,13.8,24.2,N/A,,Clear,210,2013-01-20 00:53:00
7:53 PM,48.9,37.9,66,30.13,10.0,SW,10.4,-,N/A,,Clear,220,2013-01-20 01:53:00
8:53 PM,48.0,37.0,66,30.13,10.0,SW,12.7,-,N/A,,Clear,220,2013-01-20 02:53:00
9:53 PM,46.9,37.0,68,30.14,10.0,SW,10.4,-,N/A,,Clear,220,2013-01-20 03:53:00
10:53 PM,45.0,36.0,71,30.15,10.0,SW,6.9,-,N/A,,Clear,230,2013-01-20 04:53:00
11:53 PM,44.1,36.0,73,30.15,10.0,SW,5.8,-,N/A,,Clear,230,2013-01-20 05:53:00